Flag for U.S.A. Weather past 2 weeks in Cocoa Beach, Florida, U.S.A.

Now
64 °F

Mostly cloudy.


Feels Like: 64 °F
Forecast: 65 / 73 °F
Wind: 15 mph from North

Location: Cocoa / Patrick Air Force Base


UV Index: 7 (High)

Visibility: 10 mi


Pressure: 30.08 "Hg

Humidity: 83%

Dew point: 59 °F

Location of Cocoa BeachLocation

Historic Weather in Cocoa Beach

°F

Cocoa Beach temperature yesterday

Maximum temperature yesterday: 70 °F (at 1:58 PM)
Minimum temperature yesterday: 64 °F (at 10:58 PM)
Average temperature yesterday: 66 °F

Past Weeks' High & Low Weather Summary

 TemperatureHumidityPressure
High89 °F (Apr 15, 1:58 PM)100% (Apr 18, 6:04 AM)30.31 "Hg (Apr 18, 6:04 AM)
Low60 °F (Apr 16, 7:58 AM)37% (Apr 9, 3:58 PM)29.70 "Hg (Apr 8, 4:01 PM)
Average73 °F77%30.04 "Hg
* Reported Apr 5 10:58 PM — Apr 20 10:58 PM, Cocoa Beach, Weather by CustomWeather, © 2014

Note: Actual official high and low records may vary slightly from our data, if they occured in-between our weather recording intervals... More about our weather records

Advertising

Historic Weather Conditions — Data for Previous 24 hours

 ConditionsComfort  
Time TempWeatherWind HumidityBarometerVisibility
10:58 PM
Apr 20
64 °FMostly cloudy.13 mph85%30.09 "Hg10 mi
9:58 PM64 °FPassing clouds.18 mph83%30.09 "Hg10 mi
8:58 PM65 °FOvercast.16 mph79%30.08 "Hg10 mi
7:58 PM65 °FMostly cloudy.13 mph81%30.06 "Hg10 mi
6:58 PM66 °FMore clouds than sun.17 mph78%30.05 "Hg10 mi
5:58 PM67 °FOvercast.16 mph74%30.05 "Hg10 mi
4:58 PM70 °FOvercast.10 mph68%30.04 "Hg10 mi
3:58 PM70 °FOvercast.15 mph67%30.04 "Hg10 mi
2:58 PM70 °FOvercast.16 mph68%30.05 "Hg10 mi
1:58 PM70 °FPartly sunny.15 mph68%30.05 "Hg10 mi
12:58 PM68 °FOvercast.15 mph74%30.05 "Hg10 mi
11:58 AM67 °FOvercast.17 mph74%30.06 "Hg10 mi
10:58 AM67 °FMostly cloudy.18 mph79%30.06 "Hg10 mi
10:04 AM66 °FDrizzle. Broken clouds.15 mph88%30.04 "Hg10 mi
9:58 AM66 °FBroken clouds.15 mph86%30.05 "Hg10 mi
8:58 AM65 °FMostly cloudy.15 mph87%30.02 "Hg10 mi
7:58 AM64 °FMostly cloudy.13 mph89%30.02 "Hg10 mi
6:58 AM65 °FOvercast.17 mph88%29.99 "Hg10 mi
6:03 AM64 °FOvercast.15 mph94%29.96 "Hg10 mi
5:58 AM65 °FMostly cloudy.16 mph93%29.96 "Hg10 mi
4:58 AM65 °FOvercast.10 mph89%29.95 "Hg10 mi
3:58 AM65 °FMostly cloudy.10 mph84%29.95 "Hg10 mi
2:58 AM65 °FOvercast.14 mph78%29.95 "Hg10 mi
2:03 AM64 °FPassing clouds.12 mph78%29.97 "Hg10 mi
1:58 AM65 °FPartly cloudy.9 mph76%29.98 "Hg10 mi
12:58 AM65 °FOvercast.12 mph74%29.99 "Hg10 mi
Weather by CustomWeather, © 2014

See weather overview